Regional Weather Roundup
Issued by NWS

Home | Current Version | Previous Version | Graphics & Text | Print | Product List | Glossary On
Versions: 1 2 3 4 5 6 7 8 9 10 11 12 13 14 15 16 17 18 19 20 21 22 23 24 25 26 27 28 29 30 31 32 33 34 35 36 37 38 39 40 41 42 43 44 45 46 47 48 49 50
000
ASUS43 KLOT 020610
RWRIL

ILLINOIS REGIONAL WEATHER ROUNDUP
NATIONAL WEATHER SERVICE CHICAGO/ROMEOVILLE IL
100 AM CDT THU OCT 02 2014

NOTE: "FAIR" INDICATES FEW OR NO CLOUDS BELOW 12,000 FEET WITH NO
SIGNIFICANT WEATHER AND/OR OBSTRUCTIONS TO VISIBILITY.

* THESE STATIONS ARE NOT UNDER NWS QUALITY CONTROL. THEY ALSO MAY NOT
  REPORT WEATHER SUCH AS PRECIPITATION OR FOG.

ILZ001-002-007-009-015-016-024-020700-
NORTHWEST ILLINOIS

CITY           SKY/WX    TMP DP  RH WIND       PRES   REMARKS
MOLINE         CLOUDY    62  59  90 E5        29.80F FOG
6HR MIN TEMP:  60; 6HR MAX TEMP:  69;

SAVANNA*       CLOUDY    64  59  85 NE5       29.83F
$$

ILZ003-004-008-010-011-017-018-020700-
NORTH CENTRAL ILLINOIS

CITY           SKY/WX    TMP DP  RH WIND       PRES   REMARKS
ROCKFORD       CLOUDY    64  55  72 SE6       29.88F
6HR MIN TEMP:  63; 6HR MAX TEMP:  68;

FREEPORT*      CLOUDY    61  56  83 CALM      29.87F
ROCHELLE*      RAIN      63  56  79 SE6       29.87S
DE KALB*       DRIZZLE   62  55  78 SE8       29.89S
PERU*          CLOUDY    66  61  82 E5        29.86F
$$

ILZ005-006-012>014-019>023-020700-
NORTHEAST ILLINOIS

CITY           SKY/WX    TMP DP  RH WIND       PRES   REMARKS
CHICAGO-OHARE  CLOUDY    66  53  63 S8        29.89R
6HR MIN TEMP:  65; 6HR MAX TEMP:  67;

CHICAGO-MIDWAY LGT RAIN  68  54  60 S8        29.90R
6HR MIN TEMP:  68; 6HR MAX TEMP:  70; 6HR PCP: TRACE;

AURORA         LGT RAIN  65  56  72 E7        29.88F
6HR MIN TEMP:  65; 6HR MAX TEMP:  69; 6HR PCP: TRACE;

LANSING*       LGT RAIN  64  53  67 SE8       29.90S
JOLIET*        CLOUDY    64  56  73 SE5       29.89S
WAUKEGAN       CLOUDY    62  55  77 SE10      29.89S
6HR MIN TEMP:  59; 6HR MAX TEMP:  64;

DUPAGE AIRPORT CLOUDY    65  55  70 SE5       29.88S
6HR MIN TEMP:  65; 6HR MAX TEMP:  67; 6HR PCP: TRACE;

KANKAKEE*      CLOUDY    64  58  82 E7        29.89F
WHEELING       CLOUDY    65  54  67 S5        29.91R
6HR MIN TEMP:  63; 6HR MAX TEMP:  66;

MORRIS*        CLOUDY    65  61  86 SE3       29.87R
ROMEOVILLE*    CLOUDY    65  54  69 SE6       29.88F
NORTHERLY ISL    N/A     65  55  70 SE9         N/A
$$

LMZ740>746-020700-
SOUTHERN LAKE MICHIGAN

STATION/POSITION SKY/WX   TEMP    WIND        PRES    VSBY  WAVE
                          AIR SEA DIR/SP/G                  HT/PER
                          (F)     (DEG/KT/KT) (MB)    (MI)  (FT/S)
SOUTHERN BUOY              63 62  150/ 16/ 17 1012.8F         3/ 4
WAUKEGAN HARBOR            62     170/  9/ 10   N/A
HARRISON CRIB              64     160/ 12/ 15   N/A
BURNHAM HARBOR             64     170/  4/  8   N/A
CALUMET HARBOR             65     150/  7/ 11 1011.2S
MICHIGAN CITY              65     120/ 14/ 19   N/A
MICHIGAN CITY 6N           65 64  150/ 16/ 19   N/A           2/ 2
ST. JOSEPH                 63 63  120/ 16/ 19   N/A           2/ 2
$$

ILZ025>027-034>036-040-047-049-050-058-095>099-020700-
WEST-CENTRAL ILLINOIS

CITY           SKY/WX    TMP DP  RH WIND       PRES   REMARKS
QUINCY         LGT RAIN  67  65  93 W12       29.85R
GALESBURG*     CLOUDY    65  64  94 S3        29.82F
MACOMB*        CLOUDY    65  64  98 S3        29.85S
JACKSONVILLE*  RAIN      68  66  94 SE16      29.84F
PITTSFIELD*    CLOUDY    67  64  91 SE9       29.80F
$$

ILZ028>032-037-038-041>044-048-051>054-059>061-020700-
CENTRAL ILLINOIS

CITY           SKY/WX    TMP DP  RH WIND       PRES   REMARKS
PONTIAC        CLOUDY    70  64  83 S12       29.87S
DECATUR        LGT RAIN  67  64  90 W7        29.90F
PEORIA         CLOUDY    70  64  81 S13G23    29.84F
6HR MIN TEMP:  69; 6HR MAX TEMP:  72; 6HR PCP:  0.12;

LACON*         CLOUDY    68  63  82 S7        29.84F
LINCOLN*       RAIN      67  65  91 S13G20    29.84F
SPRINGFIELD    RAIN      68  65  90 S12       29.87F
6HR MIN TEMP:  66; 6HR MAX TEMP:  70; 6HR PCP:  0.70;

TAYLORVILLE    HVY RAIN  63  63 100 CALM      29.89F
$$

ILZ033-039-045-046-055>057-062-063-020700-
EAST-CENTRAL ILLINOIS

CITY           SKY/WX    TMP DP  RH WIND       PRES   REMARKS
CHAMPAIGN      LGT RAIN  66  63  88 SW5       29.91R
DANVILLE*      CLOUDY    65  60  82 SE7       29.88F
RANTOUL*       LGT RAIN  69  60  74 S6        29.91R
MATTOON        CLOUDY    69  58  67 NW7       29.90S
PARIS*         CLOUDY    67  61  81 SE5       29.92F
$$

ILZ079-100>102-020700-
SOUTHWEST ILLINOIS

CITY           SKY/WX    TMP DP  RH WIND       PRES   REMARKS
ALTON          CLOUDY    66  64  96 E9        29.85F
BELLEVILLE     CLOUDY    70  70  99 NE3       29.85F
CAHOKIA*       CLOUDY    72  70  93 E3        29.84F FOG
SPARTA*        CLOUDY    71  64  77 SE5       29.88S
$$

ILZ064>066-069>071-074>076-080>082-084>086-088>090-092>094-020700-
SOUTH-CENTRAL ILLINOIS

CITY           SKY/WX    TMP DP  RH WIND       PRES   REMARKS
CARBONDALE     MOCLDY    71  61  70 S6        29.88F
6HR MIN TEMP:  69; 6HR MAX TEMP:  77;

CAIRO*         MOCLDY    71  64  76 S5        29.89S
EFFINGHAM*     CLOUDY    70  56  61 SE5       29.90S
MARION         MOCLDY    70  61  73 S3        29.89F
CENTRALIA*     CLOUDY    72  60  67 SE6       29.88F
SALEM*         CLOUDY    72  66  80 SE3       29.88F
METROPOLIS*    PTCLDY    68  62  82 CALM      29.89F
$$

ILZ067-068-072-073-078-083-087-091-020700-
SOUTHEAST ILLINOIS

CITY           SKY/WX    TMP DP  RH WIND       PRES   REMARKS
LAWRENCEVILLE  PTCLDY    65  58  78 S8        29.92F
FLORA*         PTCLDY    66  59  79 CALM      29.90F
FAIRFIELD*     MOCLDY    66  63  88 CALM      29.89F
HARRISBURG*    MOCLDY    66  62  85 CALM      29.91F
ROBINSON*      MOCLDY    63  59  88 SE3       29.92F
CARMI*         MOCLDY    64  61  88 E5        29.90F
$$

ABBREVIATIONS USED IN REMARKS
   TC - TEMPERATURE IN CELSIUS
  WCI - WIND CHILL INDEX
   HX - HEAT INDEX
  VSB - VISIBILITY
$$



USA.gov is the U.S. government's official web portal to all federal, state and local government web resources and services.